SR5MRF Weather Reports


Display with metric or nautical units.
time (UTC)temp
F
wind
direction
speed
MPH
gust
MPH
rain 1hr
in
rain 24hr
in
rain mn
in
humidity
%
barometer
mb
20260506175438 73 337 0.0 0.0 0.00 0.00 0.00 47 1002.9
20260506174839 73 337 0.0 0.0 0.00 0.00 0.00 47 1002.9
20260506174738 73 337 0.0 0.0 0.00 0.00 0.00 47 1002.8
20260506174038 73 337 0.0 0.0 0.00 0.00 0.00 47 1002.9
20260506173839 73 337 0.0 0.0 0.00 0.00 0.00 47 1002.9
20260506173338 73 337 0.0 0.0 0.00 0.00 0.00 46 1002.9
20260506172839 73 337 0.0 0.0 0.00 0.00 0.00 46 1002.7
20260506172638 73 337 0.0 0.0 0.00 0.00 0.00 46 1002.7
20260506171938 74 337 0.0 0.0 0.00 0.00 0.00 46 1002.8
20260506171839 74 315 0.0 0.0 0.00 0.00 0.00 46 1002.9
20260506171238 74 315 0.0 0.0 0.00 0.00 0.00 45 1002.8
20260506170839 74 337 0.0 0.0 0.00 0.00 0.00 45 1002.7
20260506170538 74 337 0.0 0.0 0.00 0.00 0.00 45 1002.7
20260506165838 74 337 0.0 0.0 0.00 0.00 0.00 45 1002.6
20260506165138 75 337 0.0 0.0 0.00 0.00 0.00 44 1002.7
20260506164839 75 337 0.0 0.0 0.00 0.00 0.00 44 1002.6
20260506164438 75 337 0.0 0.0 0.00 0.00 0.00 44 1002.6
20260506163839 75 337 0.0 0.0 0.00 0.00 0.00 44 1002.6
20260506163738 75 337 0.0 0.0 0.00 0.00 0.00 44 1002.6
20260506163038 75 337 0.0 0.0 0.00 0.00 0.00 44 1002.5
20260506162338 75 337 0.0 0.0 0.00 0.00 0.00 43 1002.6
20260506161839 76 202 0.0 0.0 0.00 0.00 0.00 43 1002.4
20260506161638 76 270 0.0 0.0 0.00 0.00 0.00 43 1002.4
20260506160938 76 315 0.0 0.0 0.00 0.00 0.00 43 1002.5
20260506160238 76 337 0.0 0.0 0.00 0.00 0.00 43 1002.3
20260506155839 76 337 0.0 0.0 0.00 0.00 0.00 44 1002.4
20260506155538 76 337 0.0 0.0 0.00 0.00 0.00 44 1002.3
20260506154838 76 337 0.0 0.0 0.00 0.00 0.00 44 1002.5
20260506154139 76 0 0.0 0.0 0.00 0.00 0.00 44 1002.6
20260506153439 76 337 0.0 0.0 0.00 0.00 0.00 44 1002.6
20260506152839 76 337 0.0 0.0 0.00 0.00 0.00 44 1002.7
20260506152739 76 337 0.0 0.0 0.00 0.00 0.00 44 1002.7
20260506152039 76 337 0.0 0.0 0.00 0.00 0.00 43 1002.6
20260506151339 76 202 0.0 0.0 0.00 0.00 0.00 43 1002.5
20260506150840 76 135 0.0 0.0 0.00 0.00 0.00 42 1002.7
20260506150639 76 135 0.0 0.0 0.00 0.00 0.00 42 1002.7
20260506145939 76 180 0.0 0.0 0.00 0.00 0.00 42 1002.8
20260506145839 76 180 0.0 0.0 0.00 0.00 0.00 42 1002.8
20260506145239 77 247 0.0 0.0 0.00 0.00 0.00 42 1002.9
20260506144839 77 247 0.0 0.0 0.00 0.00 0.00 42 1002.7
20260506144539 77 247 0.0 0.0 0.00 0.00 0.00 42 1002.7
20260506143839 77 180 0.0 0.0 0.00 0.00 0.00 42 1002.6
20260506143139 77 157 0.0 0.0 0.00 0.00 0.00 42 1002.5
20260506142839 76 180 0.0 0.0 0.00 0.00 0.00 42 1002.7
20260506142439 76 180 0.0 0.0 0.00 0.00 0.00 42 1002.7
20260506141839 76 180 0.0 0.0 0.00 0.00 0.00 42 1002.7
20260506141739 76 180 0.0 0.0 0.00 0.00 0.00 42 1002.7
20260506141039 76 180 0.0 0.0 0.00 0.00 0.00 42 1002.7
20260506140840 76 180 0.0 0.0 0.00 0.00 0.00 42 1002.7
20260506140339 77 202 0.0 0.0 0.00 0.00 0.00 42 1002.7
20260506135840 77 157 0.0 0.0 0.00 0.00 0.00 42 1002.7
20260506135639 77 337 0.0 0.0 0.00 0.00 0.00 42 1002.8
20260506134939 77 337 0.0 0.0 0.00 0.00 0.00 41 1002.7
20260506134840 77 337 0.0 0.0 0.00 0.00 0.00 41 1002.7
20260506134239 77 135 0.0 0.0 0.00 0.00 0.00 42 1002.5
20260506133539 77 157 0.0 0.0 0.00 0.00 0.00 42 1002.5
20260506132839 77 157 0.0 0.0 0.00 0.00 0.00 42 1002.6
20260506132139 77 315 0.0 0.0 0.00 0.00 0.00 42 1002.5
20260506131840 77 315 0.0 0.0 0.00 0.00 0.00 42 1002.5
20260506131439 77 90 0.0 0.0 0.00 0.00 0.00 42 1002.6
20260506130739 77 22 0.0 0.0 0.00 0.00 0.00 42 1002.6
20260506130039 77 180 0.0 0.0 0.00 0.00 0.00 42 1002.5
20260506125840 77 180 0.0 0.0 0.00 0.00 0.00 42 1002.7
20260506125339 77 337 0.0 0.0 0.00 0.00 0.00 43 1002.6
20260506124639 76 247 0.0 0.0 0.00 0.00 0.00 43 1002.6
20260506123939 76 337 0.0 0.0 0.00 0.00 0.00 43 1002.8
20260506123840 76 337 0.0 0.0 0.00 0.00 0.00 43 1002.7
20260506123239 76 157 0.0 0.0 0.00 0.00 0.00 43 1002.7
20260506122840 76 180 0.0 0.0 0.00 0.00 0.00 42 1002.7
20260506122539 77 90 0.0 0.0 0.00 0.00 0.00 42 1002.7
20260506121839 77 180 0.0 0.0 0.00 0.00 0.00 41 1002.8
20260506121139 77 180 0.0 0.0 0.00 0.00 0.00 41 1002.7
20260506120840 78 0 0.0 0.0 0.00 0.00 0.00 41 1002.6
20260506120439 78 180 0.0 0.0 0.00 0.00 0.00 41 1002.6
20260506115840 78 22 0.0 0.0 0.00 0.00 0.00 41 1002.6
20260506115739 78 292 0.0 0.0 0.00 0.00 0.00 40 1002.7
20260506115039 78 180 0.0 0.0 0.00 0.00 0.00 40 1002.6
20260506114840 78 180 0.0 0.0 0.00 0.00 0.00 40 1002.6
20260506114339 78 180 0.0 0.0 0.00 0.00 0.00 40 1002.7
20260506113639 79 157 0.0 0.0 0.00 0.00 0.00 39 1002.7
20260506112939 80 180 0.0 0.0 0.00 0.00 0.00 38 1002.7
20260506112840 80 180 0.0 0.0 0.00 0.00 0.00 38 1002.7
20260506112239 80 202 0.0 0.0 0.00 0.00 0.00 38 1002.7
20260506111840 81 157 0.0 0.0 0.00 0.00 0.00 38 1002.7
20260506111539 81 180 0.0 0.0 0.00 0.00 0.00 38 1002.7
20260506110839 81 0 0.0 0.0 0.00 0.00 0.00 38 1002.5
20260506110139 81 0 0.0 0.0 0.00 0.00 0.00 38 1002.5
20260506105840 82 180 0.0 0.0 0.00 0.00 0.00 38 1002.5
20260506105439 82 270 0.0 0.0 0.00 0.00 0.00 37 1002.4
20260506104840 82 202 0.0 0.0 0.00 0.00 0.00 37 1002.6
20260506104739 82 180 0.0 0.0 0.00 0.00 0.00 37 1002.5
20260506104039 82 225 0.0 0.0 0.00 0.00 0.00 37 1002.7
20260506103840 82 225 0.0 0.0 0.00 0.00 0.00 37 1002.7
20260506103339 82 157 0.0 0.0 0.00 0.00 0.00 37 1002.8
20260506102840 82 180 0.0 0.0 0.00 0.00 0.00 37 1002.6
20260506102639 82 202 0.0 0.0 0.00 0.00 0.00 37 1002.7
20260506101939 82 180 0.0 0.0 0.00 0.00 0.00 37 1002.7
20260506101239 82 180 0.0 0.0 0.00 0.00 0.00 37 1002.7
20260506100539 82 135 0.0 0.0 0.00 0.00 0.00 36 1002.8
20260506095839 82 180 0.0 0.0 0.00 0.00 0.00 36 1002.7
20260506095139 81 270 0.0 0.0 0.00 0.00 0.00 36 1002.7
20260506094840 81 157 0.0 0.0 0.00 0.00 0.00 36 1002.7
20260506094439 80 315 0.0 0.0 0.00 0.00 0.00 37 1002.7
20260506093840 79 157 0.0 0.0 0.00 0.00 0.00 37 1002.8
20260506093739 79 157 0.0 0.0 0.00 0.00 0.00 37 1002.8
20260506093039 78 0 0.0 0.0 0.00 0.00 0.00 37 1002.6
20260506092840 78 180 0.0 0.0 0.00 0.00 0.00 37 1002.7
20260506092339 79 157 0.0 0.0 0.00 0.00 0.00 37 1002.7
20260506091840 79 0 0.0 0.0 0.00 0.00 0.00 37 1002.7
20260506091639 78 180 0.0 0.0 0.00 0.00 0.00 37 1002.6
20260506090939 78 202 0.0 0.0 0.00 0.00 0.00 36 1002.6
20260506090840 79 225 0.0 0.0 0.00 0.00 0.00 35 1002.7
20260506090239 80 337 0.0 0.0 0.00 0.00 0.00 35 1002.6
20260506085840 81 225 0.0 0.0 0.00 0.00 0.00 34 1002.6
20260506085539 81 202 0.0 0.0 0.00 0.00 0.00 34 1002.6
20260506084839 83 225 0.0 0.0 0.00 0.00 0.00 34 1002.6
20260506084139 84 180 0.0 0.0 0.00 0.00 0.00 33 1002.6
20260506083840 84 180 0.0 0.0 0.00 0.00 0.00 34 1002.5
20260506083439 84 180 0.0 0.0 0.00 0.00 0.00 34 1002.3
20260506082840 84 202 0.0 0.0 0.00 0.00 0.00 34 1002.3
20260506082739 84 0 0.0 0.0 0.00 0.00 0.00 34 1002.3
20260506082039 83 202 0.0 0.0 0.00 0.00 0.00 34 1002.3
20260506081840 83 202 0.0 0.0 0.00 0.00 0.00 34 1002.3
20260506081339 83 180 0.0 0.0 0.00 0.00 0.00 34 1002.3
20260506080639 83 202 0.0 0.0 0.00 0.00 0.00 35 1002.3
20260506073139 80 225 0.0 0.0 0.00 0.00 0.00 39 1002.7
20260506072840 79 337 0.0 0.0 0.00 0.00 0.00 40 1002.7
20260506072439 79 157 0.0 0.0 0.00 0.00 0.00 40 1002.8
20260506071840 78 90 0.0 0.0 0.00 0.00 0.00 41 1003.0
20260506071739 78 90 0.0 0.0 0.00 0.00 0.00 42 1002.9
20260506071039 77 337 0.0 0.0 0.00 0.00 0.00 43 1002.8
20260506070840 76 337 0.0 0.0 0.00 0.00 0.00 43 1003.0
20260506070339 76 157 0.0 0.0 0.00 0.00 0.00 44 1003.1
20260506062139 72 225 0.0 0.0 0.00 0.00 0.00 52 1003.2
20260506061840 72 225 0.0 0.0 0.00 0.00 0.00 52 1003.1
20260506061439 71 225 0.0 0.0 0.00 0.00 0.00 53 1003.3
20260506060840 69 202 0.0 0.0 0.00 0.00 0.00 56 1003.4
20260506060739 69 202 0.0 0.0 0.00 0.00 0.00 56 1003.4
20260506051139 56 180 0.0 0.0 0.00 0.00 0.00 76 1003.5
20260506050840 56 180 0.0 0.0 0.00 0.00 0.00 77 1003.5
20260506050439 56 180 0.0 0.0 0.00 0.00 0.00 77 1003.5
20260506045039 55 157 0.0 0.0 0.00 0.00 0.00 78 1003.6
20260506044840 55 157 0.0 0.0 0.00 0.00 0.00 79 1003.6
20260506044339 55 202 0.0 0.0 0.00 0.00 0.00 78 1003.3
20260506043840 55 337 0.0 0.0 0.00 0.00 0.00 78 1003.1
20260506043639 55 337 0.0 0.0 0.00 0.00 0.00 78 1003.1
20260506042939 55 292 0.0 0.0 0.00 0.00 0.00 78 1003.2
20260506042239 55 180 0.0 0.0 0.00 0.00 0.00 78 1003.6
20260506041842 55 202 0.0 0.0 0.00 0.00 0.00 78 1003.6
20260506041539 55 337 0.0 0.0 0.00 0.00 0.00 77 1003.3
20260506040839 55 202 0.0 0.0 0.00 0.00 0.00 77 1003.4
20260506040139 54 202 0.0 0.0 0.00 0.00 0.00 77 1003.6
20260506035840 54 337 0.0 0.0 0.00 0.00 0.00 77 1003.7
20260506035439 54 180 0.0 0.0 0.00 0.00 0.00 77 1003.7
20260506034840 54 135 0.0 0.0 0.00 0.00 0.00 76 1003.7
20260506034739 54 22 0.0 0.0 0.00 0.00 0.00 76 1003.7
20260506034039 54 157 0.0 0.0 0.00 0.00 0.00 76 1003.7
20260506033840 54 157 0.0 0.0 0.00 0.00 0.00 76 1003.8
20260506033339 54 157 0.0 0.0 0.00 0.00 0.00 75 1003.4
20260506032840 54 135 0.0 0.0 0.00 0.00 0.00 75 1003.6
20260506032639 54 135 0.0 0.0 0.00 0.00 0.00 75 1003.5
20260506031939 54 337 0.0 0.0 0.00 0.00 0.00 75 1003.6
20260506031840 54 337 0.0 0.0 0.00 0.00 0.00 75 1003.5
20260506031239 54 180 0.0 0.0 0.00 0.00 0.00 75 1003.7
20260506030840 54 337 0.0 0.0 0.00 0.00 0.00 75 1003.8
20260506030539 54 0 0.0 0.0 0.00 0.00 0.00 74 1003.9
20260506025839 55 180 0.0 0.0 0.00 0.00 0.00 74 1003.7
20260506025139 55 157 0.0 0.0 0.00 0.00 0.00 73 1003.7
20260506024840 55 157 0.0 0.0 0.00 0.00 0.00 73 1003.7
20260506024440 55 180 0.0 0.0 0.00 0.00 0.00 73 1003.7
20260506023740 55 337 0.0 0.0 0.00 0.00 0.00 73 1003.7
20260506023039 56 315 0.0 0.0 0.00 0.00 0.00 72 1003.8
20260506022340 56 180 0.0 0.0 0.00 0.00 0.00 72 1003.8
20260506021840 56 337 0.0 0.0 0.00 0.00 0.00 71 1003.9
20260506021640 56 157 0.0 0.0 0.00 0.00 0.00 71 1004.0
20260506020940 56 112 0.0 0.0 0.00 0.00 0.00 71 1004.0
20260506020841 56 45 0.0 0.0 0.00 0.00 0.00 70 1003.9
20260506020240 57 157 0.0 0.0 0.00 0.00 0.00 71 1004.1
20260506015840 57 67 0.0 0.0 0.00 0.00 0.00 71 1004.2
20260506015540 57 337 0.0 0.0 0.00 0.00 0.00 70 1004.2
20260506014840 57 337 0.0 0.0 0.00 0.00 0.00 70 1004.1
20260506014140 57 337 0.0 0.0 0.00 0.00 0.00 69 1004.0
20260506013840 57 337 0.0 0.0 0.00 0.00 0.00 69 1004.2
20260506013440 58 337 0.0 0.0 0.00 0.00 0.00 70 1004.2
20260506012842 58 337 0.0 0.0 0.00 0.00 0.00 70 1004.1
20260506012740 58 337 0.0 0.0 0.00 0.00 0.00 70 1004.1
20260506012040 58 337 0.0 0.0 0.00 0.00 0.00 71 1004.1
20260506011841 58 337 0.0 0.0 0.00 0.00 0.00 71 1004.1
20260506011340 58 337 0.0 0.0 0.00 0.00 0.00 71 1004.0
20260506010841 58 337 0.0 0.0 0.00 0.00 0.00 71 1004.0
20260506010640 58 337 0.0 0.0 0.00 0.00 0.00 71 1003.9
20260506005940 59 315 0.0 0.0 0.00 0.00 0.00 71 1003.9
20260506005841 59 315 0.0 0.0 0.00 0.00 0.00 71 1003.9
20260506005240 59 337 0.0 0.0 0.00 0.00 0.00 71 1004.1
20260506004841 59 337 0.0 0.0 0.00 0.00 0.00 70 1004.2
20260506004540 59 337 0.0 0.0 0.00 0.00 0.00 71 1004.1
20260506003840 59 337 0.0 0.0 0.00 0.00 0.00 70 1004.0
20260506003140 60 135 0.0 0.0 0.00 0.00 0.00 70 1003.9
20260506002841 60 337 0.0 0.0 0.00 0.00 0.00 70 1003.7
20260506002440 60 337 0.0 0.0 0.00 0.00 0.00 70 1003.7
20260506001841 60 337 0.0 0.0 0.00 0.00 0.00 70 1003.7
20260506001740 60 337 0.0 0.0 0.00 0.00 0.00 70 1003.7
20260506001040 60 315 0.0 0.0 0.00 0.00 0.00 70 1003.7
20260506000841 60 337 0.0 0.0 0.00 0.00 0.00 70 1003.7
20260506000340 60 157 0.0 0.0 0.00 0.00 0.00 70 1003.6
20260505235841 61 157 0.0 0.0 0.00 0.00 0.00 69 1003.7
20260505235640 61 157 0.0 0.0 0.00 0.00 0.00 69 1003.7
20260505234940 61 157 0.0 0.0 0.00 0.00 0.00 68 1003.9
20260505234841 61 157 0.0 0.0 0.00 0.00 0.00 68 1003.8
20260505234240 61 157 0.0 0.0 0.00 0.00 0.00 68 1003.9
20260505233841 61 157 0.0 0.0 0.00 0.00 0.00 67 1003.9
20260505233540 61 157 0.0 0.0 0.00 0.00 0.00 67 1004.1
20260505232840 62 180 0.0 0.0 0.00 0.00 0.00 67 1003.9
20260505232140 62 315 0.0 0.0 0.00 0.00 0.00 66 1004.0
20260505231841 62 315 0.0 0.0 0.00 0.00 0.00 66 1003.9
20260505231440 62 315 0.0 0.0 0.00 0.00 0.00 66 1003.9
20260505230841 63 202 0.0 0.0 0.00 0.00 0.00 65 1003.8
20260505230740 63 315 0.0 0.0 0.00 0.00 0.00 65 1003.7
20260505230040 63 315 0.0 0.0 0.00 0.00 0.00 65 1003.7
20260505225841 63 315 0.0 0.0 0.00 0.00 0.00 64 1003.7
20260505225340 63 337 0.0 0.0 0.00 0.00 0.00 64 1003.7
20260505224841 63 337 0.0 0.0 0.00 0.00 0.00 64 1003.8
20260505224640 63 337 0.0 0.0 0.00 0.00 0.00 64 1003.7
20260505223940 64 135 0.0 0.0 0.00 0.00 0.00 65 1003.5
20260505223841 64 135 0.0 0.0 0.00 0.00 0.00 65 1003.6
20260505223240 64 337 0.0 0.0 0.00 0.00 0.00 64 1003.6
20260505222841 64 180 0.0 0.0 0.00 0.00 0.00 63 1003.6
20260505222540 64 337 0.0 0.0 0.00 0.00 0.00 63 1003.6
20260505221840 64 337 0.0 0.0 0.00 0.00 0.00 63 1003.7
20260505221140 64 247 0.0 0.0 0.00 0.00 0.00 63 1003.7
20260505220841 64 157 0.0 0.0 0.00 0.00 0.00 64 1003.8
20260505220440 65 22 0.0 0.0 0.00 0.00 0.00 63 1003.7
20260505215740 65 315 0.0 0.0 0.00 0.00 0.00 62 1003.8
20260505215040 65 337 0.0 0.0 0.00 0.00 0.00 61 1003.7
20260505214841 65 337 0.0 0.0 0.00 0.00 0.00 61 1003.6
20260505214340 66 315 0.0 0.0 0.00 0.00 0.00 60 1003.7
20260505213841 66 202 0.0 0.0 0.00 0.00 0.00 59 1003.9
20260505213640 66 337 0.0 0.0 0.00 0.00 0.00 58 1003.8
20260505212940 66 292 0.0 0.0 0.00 0.00 0.00 57 1003.8
20260505212841 66 315 0.0 0.0 0.00 0.00 0.00 57 1003.8
20260505212240 67 135 0.0 0.0 0.00 0.00 0.00 57 1003.7
20260505211841 67 337 0.0 0.0 0.00 0.00 0.00 55 1003.7
20260505211540 67 202 0.0 0.0 0.00 0.00 0.00 52 1003.7
20260505210840 67 337 0.0 0.0 0.00 0.00 0.00 52 1003.7
20260505210140 67 337 0.0 0.0 0.00 0.00 0.00 48 1003.6
20260505205841 68 337 0.0 0.0 0.00 0.00 0.00 46 1003.7
20260505205440 68 0 0.0 0.0 0.00 0.00 0.00 44 1003.6
20260505204841 68 337 0.0 0.0 0.00 0.00 0.00 41 1003.6
20260505204740 68 337 0.0 0.0 0.00 0.00 0.00 41 1003.5
20260505204040 68 337 0.0 0.0 0.00 0.00 0.00 38 1003.6
20260505203841 68 337 0.0 0.0 0.00 0.00 0.00 38 1003.4
20260505203340 68 337 0.0 0.0 0.00 0.00 0.00 38 1003.4
20260505202640 68 337 0.0 0.0 0.00 0.00 0.00 36 1003.5
20260505201940 69 337 0.0 0.0 0.00 0.00 0.00 35 1003.4
20260505201240 69 315 0.0 0.0 0.00 0.00 0.00 34 1003.2
20260505200540 69 337 0.0 0.0 0.00 0.00 0.00 34 1002.9
20260505195840 70 202 0.0 0.0 0.00 0.00 0.00 33 1002.9
20260505195140 70 202 0.0 0.0 0.00 0.00 0.00 33 1003.0
20260505194841 70 202 0.0 0.0 0.00 0.00 0.00 33 1002.9
20260505194440 70 202 0.0 0.0 0.00 0.00 0.00 33 1002.8
20260505193844 70 202 0.0 0.0 0.00 0.00 0.00 33 1002.9
20260505193740 71 202 0.0 0.0 0.00 0.00 0.00 33 1002.8
20260505193040 71 180 0.0 0.0 0.00 0.00 0.00 33 1002.8
20260505192340 71 202 0.0 0.0 0.00 0.00 0.00 33 1002.7
20260505191841 71 202 0.0 0.0 0.00 0.00 0.00 33 1003.0
20260505191640 71 180 0.0 0.0 0.00 0.00 0.00 33 1002.9
20260505190940 71 180 0.0 0.0 0.00 0.00 0.00 32 1002.9
20260505190841 71 180 0.0 0.0 0.00 0.00 0.00 32 1002.8
20260505190240 71 180 0.0 0.0 0.00 0.00 0.00 32 1002.8
20260505185841 72 202 0.0 0.0 0.00 0.00 0.00 32 1002.8
20260505185540 72 202 0.0 0.0 0.00 0.00 0.00 32 1003.0
20260505184840 72 202 0.0 0.0 0.00 0.00 0.00 32 1003.1
20260505184140 73 202 0.0 0.0 0.00 0.00 0.00 31 1002.9
20260505183841 73 202 0.0 0.0 0.00 0.00 0.00 31 1002.9
20260505183440 73 180 0.0 0.0 0.00 0.00 0.00 31 1002.8
20260505182841 73 180 0.0 0.0 0.00 0.00 0.00 31 1003.0
20260505182740 73 180 0.0 0.0 0.00 0.00 0.00 31 1003.0
20260505182040 74 180 0.0 0.0 0.00 0.00 0.00 30 1002.9
20260505181340 74 180 0.0 0.0 0.00 0.00 0.00 30 1002.8
20260505180841 75 180 0.0 0.0 0.00 0.00 0.00 30 1003.0
20260505180640 75 180 0.0 0.0 0.00 0.00 0.00 30 1003.1
20260505175940 75 180 0.0 0.0 0.00 0.00 0.00 29 1002.8
20260505175841 75 202 0.0 0.0 0.00 0.00 0.00 29 1002.8